TimeCDT,TemperatureF,Dew PointF,Humidity,Sea Level PressureIn,VisibilityMPH,Wind Direction,Wind SpeedMPH,Gust SpeedMPH,PrecipitationIn,Events,Conditions,WindDirDegrees,DateUTC
12:53 AM,24.1,16.0,71,30.06,10.0,NE,8.1,-,N/A,,Clear,50,2013-03-22 05:53:00
1:53 AM,24.1,15.1,69,30.07,10.0,NE,5.8,-,N/A,,Clear,50,2013-03-22 06:53:00
2:53 AM,23.0,15.1,72,30.07,10.0,NE,4.6,-,N/A,,Clear,50,2013-03-22 07:53:00
3:53 AM,23.0,16.0,74,30.07,10.0,NE,6.9,-,N/A,,Clear,50,2013-03-22 08:53:00
4:53 AM,23.0,15.1,72,30.06,10.0,NE,8.1,-,N/A,,Clear,50,2013-03-22 09:53:00
5:53 AM,21.9,15.1,75,30.06,10.0,NE,8.1,-,N/A,,Clear,50,2013-03-22 10:53:00
6:53 AM,21.9,14.0,72,30.07,10.0,NE,4.6,-,N/A,,Clear,50,2013-03-22 11:53:00
7:53 AM,24.1,15.1,69,30.08,10.0,ENE,6.9,-,N/A,,Clear,70,2013-03-22 12:53:00
8:53 AM,27.0,16.0,63,30.09,10.0,East,8.1,-,N/A,,Clear,100,2013-03-22 13:53:00
9:53 AM,30.0,18.0,61,30.08,10.0,ESE,4.6,-,N/A,,Clear,110,2013-03-22 14:53:00
10:53 AM,34.0,18.0,52,30.08,10.0,Variable,4.6,-,N/A,,Clear,0,2013-03-22 15:53:00
11:53 AM,37.0,16.0,42,30.06,10.0,Variable,3.5,-,N/A,,Clear,0,2013-03-22 16:53:00
12:53 PM,39.0,16.0,39,30.04,10.0,Calm,Calm,-,N/A,,Clear,0,2013-03-22 17:53:00
1:53 PM,41.0,15.1,35,30.03,10.0,Calm,Calm,-,N/A,,Clear,0,2013-03-22 18:53:00
2:53 PM,42.1,15.1,34,30.01,10.0,Calm,Calm,-,N/A,,Clear,0,2013-03-22 19:53:00
3:53 PM,43.0,16.0,34,30.01,10.0,SSW,4.6,-,N/A,,Clear,200,2013-03-22 20:53:00
4:53 PM,39.9,21.0,47,30.01,10.0,SW,11.5,-,N/A,,Overcast,220,2013-03-22 21:53:00
5:53 PM,39.9,21.9,49,30.01,10.0,SW,6.9,-,N/A,,Mostly Cloudy,220,2013-03-22 22:53:00
6:53 PM,37.9,23.0,55,30.03,9.0,SW,5.8,-,N/A,,Overcast,230,2013-03-22 23:53:00
7:53 PM,36.0,23.0,59,30.04,10.0,SW,5.8,-,N/A,,Overcast,230,2013-03-23 00:53:00
8:53 PM,36.0,21.9,57,30.05,10.0,Calm,Calm,-,N/A,,Overcast,0,2013-03-23 01:53:00
9:53 PM,35.1,21.9,59,30.05,9.0,NNW,3.5,-,N/A,,Overcast,330,2013-03-23 02:53:00
10:53 PM,36.0,19.0,50,30.05,10.0,Calm,Calm,-,N/A,,Overcast,0,2013-03-23 03:53:00
11:53 PM,36.0,21.9,57,30.06,10.0,NE,6.9,-,N/A,,Overcast,40,2013-03-23 04:53:00